CARBONITE 1 (CBNT-1)

Last updated on Thu Oct 30 2025 00:02:31 GMT+0000 (Coordinated Universal Time)

1 40718U 15032D 25302.50963089 .00002749 00000+0 34858-3 0 9995 2 40718 97.6429 125.5076 0014226 336.6370 23.4196 14.82437044555151
UTC large
Height (km)
Speed (km/s)
/
Latitude / Longitude
Inclination (degrees)
Orbital Period (minutes)
Azimuth
Elevation
Range (km)
Doppler Factor

Next 0 passes for location: London (51.5072 / 0.1276)

Sorry there are no passes over London.